| time (UTC) | temp F | wind direction | speed MPH | gust MPH | rain 1hr in | rain 24hr in | rain mn in | humidity % | barometer mb |
| 20260831013109 | 60 | 292 | 0.0 | 0.0 | 0.00 | 0.00 | 0.00 | ||
| 20260831011530 | 62 | 133 | 0.0 | 0.0 | 0.00 | 0.00 | 0.00 | ||
| 20260831011017 | 63 | 141 | 0.0 | 0.0 | 0.00 | 0.00 | 0.00 | ||
| 20260831010505 | 63 | 157 | 0.0 | 0.0 | 0.00 | 0.00 | 0.00 | ||
| 20260831005439 | 64 | 132 | 0.0 | 0.0 | 0.00 | 0.00 | 0.00 | ||
| 20260830214143 | 73 | 150 | 0.0 | 0.0 | 0.00 | 0.00 | 0.00 | ||
| 20260830213118 | 71 | 154 | 0.0 | 0.0 | 0.00 | 0.00 | 0.00 | ||
| 20260830211540 | 67 | 145 | 0.0 | 0.0 | 0.00 | 0.00 | 0.00 | ||
| 20260830211027 | 67 | 161 | 0.0 | 0.0 | 0.00 | 0.00 | 0.00 | ||
| 20260830210001 | 67 | 133 | 0.0 | 0.0 | 0.00 | 0.00 | 0.00 | ||
| 20260830190519 | 54 | 240 | 0.0 | 0.0 | 0.00 | 0.00 | 0.00 | ||
| 20260830175220 | 59 | 355 | 0.0 | 0.0 | 0.00 | 0.00 | 0.00 | ||
| 20260830171037 | 73 | 315 | 0.0 | 0.0 | 0.00 | 0.00 | 0.00 | ||
| 20260830170523 | 70 | 294 | 0.0 | 0.0 | 0.00 | 0.00 | 0.00 | ||
| 20260830165459 | 66 | 299 | 0.0 | 0.0 | 0.00 | 0.00 | 0.00 | ||
| 20260830164945 | 65 | 337 | 0.0 | 0.0 | 0.00 | 0.00 | 0.00 | ||
| 20260830161829 | 67 | 343 | 0.0 | 0.0 | 0.00 | 0.00 | 0.00 | ||
| 20260830161316 | 68 | 337 | 0.0 | 0.0 | 0.00 | 0.00 | 0.00 | ||
| 20260830155737 | 72 | 292 | 0.0 | 0.0 | 0.00 | 0.00 | 0.00 | ||
| 20260830155225 | 70 | 150 | 0.0 | 0.0 | 0.00 | 0.00 | 0.00 | ||
| 20260830154159 | 66 | 153 | 0.0 | 0.0 | 0.00 | 0.00 | 0.00 | ||
| 20260830153646 | 65 | 151 | 0.0 | 0.0 | 0.00 | 0.00 | 0.00 | ||
| 20260830145503 | 56 | 180 | 0.0 | 0.0 | 0.00 | 0.00 | 0.00 | ||
| 20260830144950 | 55 | 161 | 0.0 | 0.0 | 0.00 | 0.00 | 0.00 | ||
| 20260830144438 | 55 | 337 | 0.0 | 0.0 | 0.00 | 0.00 | 0.00 | ||
| 20260830143412 | 55 | 182 | 0.0 | 0.0 | 0.00 | 0.00 | 0.00 | ||
| 20260830141833 | 54 | 148 | 0.0 | 0.0 | 0.00 | 0.00 | 0.00 | ||
| 20260830141320 | 54 | 157 | 0.0 | 0.0 | 0.00 | 0.00 | 0.00 | ||
| 20260830140808 | 54 | 135 | 0.0 | 0.0 | 0.00 | 0.00 | 0.00 | ||
| 20260830140255 | 53 | 107 | 0.0 | 0.0 | 0.00 | 0.00 | 0.00 | ||
| 20260830135742 | 53 | 280 | 0.0 | 0.0 | 0.00 | 0.00 | 0.00 | ||
| 20260830135229 | 53 | 327 | 0.0 | 0.0 | 0.00 | 0.00 | 0.00 | ||
| 20260830134717 | 53 | 343 | 0.0 | 0.0 | 0.00 | 0.00 | 0.00 | ||
| 20260830133138 | 53 | 90 | 0.0 | 0.0 | 0.00 | 0.00 | 0.00 | ||
| 20260830131046 | 52 | 202 | 0.0 | 0.0 | 0.00 | 0.00 | 0.00 | ||
| 20260830130021 | 52 | 117 | 0.0 | 0.0 | 0.00 | 0.00 | 0.00 | ||
| 20260830125508 | 52 | 165 | 0.0 | 0.0 | 0.00 | 0.00 | 0.00 | ||
| 20260830124957 | 52 | 115 | 0.0 | 0.0 | 0.00 | 0.00 | 0.00 | ||
| 20260830124442 | 52 | 281 | 0.0 | 0.0 | 0.00 | 0.00 | 0.00 | ||
| 20260830122904 | 53 | 45 | 0.0 | 0.0 | 0.00 | 0.00 | 0.00 | ||
| 20260830120813 | 52 | 123 | 0.0 | 0.0 | 0.00 | 0.00 | 0.00 | ||
| 20260830120300 | 52 | 45 | 0.0 | 0.0 | 0.00 | 0.00 | 0.00 | ||
| 20260830115746 | 52 | 345 | 0.0 | 0.0 | 0.00 | 0.00 | 0.00 | ||
| 20260830115234 | 52 | 337 | 0.0 | 0.0 | 0.00 | 0.00 | 0.00 | ||
| 20260830114721 | 52 | 337 | 0.0 | 0.0 | 0.00 | 0.00 | 0.00 | ||
| 20260830114208 | 52 | 36 | 0.0 | 0.0 | 0.00 | 0.00 | 0.00 | ||
| 20260830113143 | 53 | 52 | 0.0 | 0.0 | 0.00 | 0.00 | 0.00 | ||
| 20260830112118 | 54 | 337 | 0.0 | 0.0 | 0.00 | 0.00 | 0.00 | ||
| 20260830111051 | 54 | 57 | 0.0 | 0.0 | 0.00 | 0.00 | 0.00 | ||
| 20260830110538 | 55 | 337 | 0.0 | 0.0 | 0.00 | 0.00 | 0.00 | ||
| 20260830110027 | 55 | 337 | 0.0 | 0.0 | 0.00 | 0.00 | 0.00 | ||
| 20260830105000 | 55 | 90 | 0.0 | 0.0 | 0.00 | 0.00 | 0.00 | ||
| 20260830104447 | 55 | 337 | 0.0 | 0.0 | 0.00 | 0.00 | 0.00 | ||
| 20260830103934 | 55 | 337 | 0.0 | 0.0 | 0.00 | 0.00 | 0.00 | ||
| 20260830102909 | 55 | 337 | 0.0 | 0.0 | 0.00 | 0.00 | 0.00 | ||
| 20260830102356 | 55 | 45 | 0.0 | 0.0 | 0.00 | 0.00 | 0.00 | ||
| 20260830101843 | 55 | 297 | 0.0 | 0.0 | 0.00 | 0.00 | 0.00 | ||
| 20260830101330 | 55 | 337 | 0.0 | 0.0 | 0.00 | 0.00 | 0.00 | ||
| 20260830100304 | 56 | 337 | 0.0 | 0.0 | 0.00 | 0.00 | 0.00 | ||
| 20260830095240 | 56 | 67 | 0.0 | 0.0 | 0.00 | 0.00 | 0.00 | ||
| 20260830092636 | 56 | 337 | 0.0 | 0.0 | 0.00 | 0.00 | 0.00 | ||
| 20260830091056 | 57 | 258 | 0.0 | 0.0 | 0.00 | 0.00 | 0.00 | ||
| 20260830090544 | 58 | 337 | 0.0 | 0.0 | 0.00 | 0.00 | 0.00 | ||
| 20260830090030 | 58 | 337 | 0.0 | 0.0 | 0.00 | 0.00 | 0.00 | ||
| 20260830085005 | 58 | 168 | 0.0 | 0.0 | 0.00 | 0.00 | 0.00 | ||
| 20260830084452 | 58 | 270 | 0.0 | 0.0 | 0.00 | 0.00 | 0.00 | ||
| 20260830083426 | 58 | 185 | 0.0 | 0.0 | 0.00 | 0.00 | 0.00 | ||
| 20260830082913 | 58 | 292 | 0.0 | 0.0 | 0.00 | 0.00 | 0.00 | ||
| 20260830082401 | 58 | 187 | 0.0 | 0.0 | 0.00 | 0.00 | 0.00 | ||
| 20260830081848 | 58 | 67 | 0.0 | 0.0 | 0.00 | 0.00 | 0.00 | ||
| 20260830081335 | 58 | 135 | 0.0 | 0.0 | 0.00 | 0.00 | 0.00 | ||
| 20260830080822 | 58 | 337 | 0.0 | 0.0 | 0.00 | 0.00 | 0.00 | ||
| 20260830080310 | 58 | 22 | 0.0 | 0.0 | 0.00 | 0.00 | 0.00 | ||
| 20260830075243 | 58 | 22 | 0.0 | 0.0 | 0.00 | 0.00 | 0.00 | ||
| 20260830074730 | 58 | 315 | 0.0 | 0.0 | 0.00 | 0.00 | 0.00 | ||
| 20260830074218 | 58 | 258 | 0.0 | 0.0 | 0.00 | 0.00 | 0.00 | ||
| 20260830073705 | 58 | 213 | 0.0 | 0.0 | 0.00 | 0.00 | 0.00 | ||
| 20260830070035 | 58 | 337 | 0.0 | 0.0 | 0.00 | 0.00 | 0.00 | ||
| 20260830065523 | 58 | 67 | 0.0 | 0.0 | 0.00 | 0.00 | 0.00 | ||
| 20260830064456 | 58 | 337 | 0.0 | 0.0 | 0.00 | 0.00 | 0.00 | ||
| 20260830063944 | 57 | 146 | 0.0 | 0.0 | 0.00 | 0.00 | 0.00 | ||
| 20260830063431 | 57 | 337 | 0.0 | 0.0 | 0.00 | 0.00 | 0.00 | ||
| 20260830062918 | 58 | 0 | 0.0 | 0.0 | 0.00 | 0.00 | 0.00 | ||
| 20260830061852 | 59 | 330 | 0.0 | 0.0 | 0.00 | 0.00 | 0.00 | ||
| 20260830061340 | 58 | 139 | 0.0 | 0.0 | 0.00 | 0.00 | 0.00 | ||
| 20260830060827 | 58 | 137 | 0.0 | 0.0 | 0.00 | 0.00 | 0.00 | ||
| 20260830060314 | 58 | 144 | 0.0 | 0.0 | 0.00 | 0.00 | 0.00 | ||
| 20260830055802 | 57 | 146 | 0.0 | 0.0 | 0.00 | 0.00 | 0.00 | ||
| 20260830053711 | 57 | 143 | 0.0 | 0.0 | 0.00 | 0.00 | 0.00 | ||
| 20260830052644 | 58 | 334 | 0.0 | 0.0 | 0.00 | 0.00 | 0.00 | ||
| 20260830052130 | 59 | 347 | 0.0 | 0.0 | 0.00 | 0.00 | 0.00 | ||
| 20260830051618 | 60 | 316 | 0.0 | 0.0 | 0.00 | 0.00 | 0.00 | ||
| 20260830051105 | 60 | 337 | 0.0 | 0.0 | 0.00 | 0.00 | 0.00 | ||
| 20260830050552 | 59 | 144 | 0.0 | 0.0 | 0.00 | 0.00 | 0.00 | ||
| 20260830050039 | 58 | 168 | 0.0 | 0.0 | 0.00 | 0.00 | 0.00 | ||
| 20260830045526 | 58 | 157 | 0.0 | 0.0 | 0.00 | 0.00 | 0.00 | ||
| 20260830045013 | 58 | 202 | 0.0 | 0.0 | 0.00 | 0.00 | 0.00 | ||
| 20260830044500 | 58 | 113 | 0.0 | 0.0 | 0.00 | 0.00 | 0.00 | ||
| 20260830043436 | 58 | 321 | 0.0 | 0.0 | 0.00 | 0.00 | 0.00 | ||
| 20260830042923 | 59 | 333 | 0.0 | 0.0 | 0.00 | 0.00 | 0.00 | ||
| 20260830041344 | 60 | 141 | 0.0 | 0.0 | 0.00 | 0.00 | 0.00 | ||
| 20260830040831 | 60 | 137 | 0.0 | 0.0 | 0.00 | 0.00 | 0.00 | ||
| 20260830040318 | 59 | 138 | 0.0 | 0.0 | 0.00 | 0.00 | 0.00 | ||
| 20260830035805 | 59 | 337 | 0.0 | 0.0 | 0.00 | 0.00 | 0.00 | ||
| 20260830035253 | 59 | 289 | 0.0 | 0.0 | 0.00 | 0.00 | 0.00 | ||
| 20260830034739 | 59 | 315 | 0.0 | 0.0 | 0.00 | 0.00 | 0.00 | ||
| 20260830034227 | 59 | 0 | 0.0 | 0.0 | 0.00 | 0.00 | 0.00 | ||
| 20260830033201 | 58 | 140 | 0.0 | 0.0 | 0.00 | 0.00 | 0.00 |